Miscellaneous Local Product
Issued by NWS North Platte, NE

Home | Current Version | Previous Version | Graphics & Text | Print | Product List | Glossary On
Versions: 1 2 3 4 5 6 7 8 9 10 11 12 13 14 15 16 17 18 19 20 21 22 23 24 25 26 27 28 29 30 31 32 33 34 35 36 37 38 39 40 41 42 43 44 45 46 47 48 49 50
000
AXUS43 KLBF 181910
MISLBF


WESTERN AND NORTH CENTRAL NEBRASKA HOURLY WEATHER ROUNDUP
NATIONAL WEATHER SERVICE NORTH PLATTE NE
100 PM CST SUN FEB 18 2018

NOTE: "FAIR" INDICATES FEW OR NO CLOUDS BELOW 12,000 FEET WITH NO
SIGNIFICANT WEATHER AND/OR OBSTRUCTIONS TO VISIBILITY.

NOTE: STATIONS NOT REPORTING VARIABLES SUCH AS SKY/WEATHER OR
PRESSURE ARE PROVIDED BY RAWS AND APRS NETWORKS AND ARE NOT UNDER
NATIONAL WEATHER SERVICE QUALITY CONTROL.

...OBSERVATIONS IN AND NEAR THE EASTERN PANHANDLE OF NEBRASKA...

CITY           SKY/WX    TMP DP  RH WIND       PRES   REMARKS
PINE RIDGE     PTSUNNY   32  25  75 N18G25    29.58R WCI  20
GORDON         MOCLDY    35  30  81 NE14      29.55R WCI  26
CHADRON        PTSUNNY   38  30  73 NE14      29.55R WCI  30
ALLIANCE       MOSUNNY   46  28  49 NE22      29.48F
SIDNEY         SUNNY     65  12  12 SW7       29.47F
$$

...OBSERVATIONS IN NORTHERN NEBRASKA AND FAR SOUTHERN SOUTH DAKOTA...

CITY           SKY/WX    TMP DP  RH WIND       PRES   REMARKS
WINNER         FAIR      35  26  69 NW25G31   29.56F WCI  23
VALENTINE      CLOUDY    40  28  62 NW23      29.55S WCI  30
AINSWORTH      PTSUNNY   42  31  63 N15       29.54R
O`NEILL        CLOUDY    49  30  48 SW15G23   29.54S
THEDFORD       PTSUNNY   50  26  38 N9        29.51F
BROKEN BOW     PTSUNNY   48  32  53 S14       29.51F
ORD            PTSUNNY   50  30  46 S21G28    29.52F
ALBION         CLOUDY    48  31  52 S17       29.55F
$$

...OBSERVATIONS IN SOUTHWEST NEBRASKA AND FAR NORTHEAST COLORADO...

CITY           SKY/WX    TMP DP  RH WIND       PRES   REMARKS
WRAY           FAIR      72  12  10 SW10G17   29.45F
HOLYOKE        FAIR      73  18  12 W7        29.46F
IMPERIAL       MOSUNNY   54  26  34 E3        29.47F
OGALLALA       MOSUNNY   46  26  46 NE3       29.46F
NORTH PLATTE   PTSUNNY   50  31  48 S14       29.50F
MCCOOK         PTSUNNY   52  31  44 SE9       29.51F
LEXINGTON      PTSUNNY   51  31  47 S12       29.53F
GOTHENBURG       N/A     50  28  43 S9          N/A
CALLAWAY         N/A     45  34  66 S12         N/A
$$

...OBSERVATIONS IN CENTRAL LINCOLN COUNTY AREA...

CITY           SKY/WX    TMP DP  RH WIND       PRES   REMARKS
N.P. AIRPORT   PTSUNNY   50  31  48 S14       29.50F
$$

...OBSERVATIONS ACROSS THE ROCKIES AND WESTERN HIGH PLAINS...

CITY           SKY/WX    TMP DP  RH WIND       PRES   REMARKS
RAPID CITY     LGT SNOW  19  14  81 N38G53    29.59R BLWGSNOWWCI  -2
SCOTTSBLUFF    MOSUNNY   54  28  36 NE17      29.46R
CHEYENNE       PTSUNNY   57  10  15 W31G41    29.49F
DENVER         PTSUNNY   65   9  11 CALM      29.47F
BERTHOUD PASS  FAIR      25  14  63 W58G75    29.63F WCI   3
COPPER MTN     SUNNY     32   7  34 W28G37    29.76F HAZE    WCI  18
MONARCH PASS     N/A     23  10  58 W51G64    29.87F HAZE    WCI   1
ASPEN          SUNNY     48  11  22 N10G20    29.66F
LARAMIE        SUNNY     50  13  22 SW41G54   29.49S
CASPER         CLOUDY    17  11  77 NE18      29.57R WCI   1
$$

...OBSERVATIONS ACROSS THE NORTHERN PLAINS...

CITY           SKY/WX    TMP DP  RH WIND       PRES   REMARKS
BISMARCK       CLOUDY    14   8  77 N15       29.79R WCI  -1
FARGO          CLOUDY    20  16  84 N18G25    29.71R WCI   5
PIERRE         CLOUDY    26  21  81 N23       29.63R WCI  11
SIOUX FALLS    CLOUDY    43  29  57 S22G29    29.54F
$$

...OBSERVATIONS ACROSS THE CENTRAL AND SOUTHERN PLAINS...

CITY           SKY/WX    TMP DP  RH WIND       PRES   REMARKS
OMAHA          PTSUNNY   54  24  31 S38G54    29.64F
GRAND ISLAND   CLOUDY    53  30  41 S26G48    29.56F
KANSAS CITY    CLOUDY    53  24  32 S22G35    29.87F
WICHITA        PTSUNNY   53  42  66 S30G36    29.80F
DODGE CITY     SUNNY     68  35  29 S33G48    29.61F
OKLAHOMA CITY  CLOUDY    50  44  80 S23G30    29.93F
DALLAS         LGT RAIN  54  52  93 SE23      29.98F FOG
AMARILLO       SUNNY     67  38  34 SW29G37   29.81F
$$




USA.gov is the U.S. government's official web portal to all federal, state and local government web resources and services.